User: anonymous   Login
Location: Oshawa
(43.9000°N, 78.8670°W)
Time: 20:00:30
(UTC-04:00)
Language:

Envisat - Orbit

View from above orbital plane
View from above orbital plane
View from above satellite
View from above satellite

Ground track
Ground track

The orbit data is extracted from the following two-line orbital elements,

1 27386U 02009A   17082.86443849 -.00000034 +00000-0 +23730-5 0  9999
2 27386 098.2425 131.6565 0001324 089.1559 270.9774 14.37890565788818
Epoch (UTC): 23 March 2017 20:44:47
Eccentricity: 0.0001324
inclination: 98.2425°
perigee height: 764 km
apogee height: 766 km
right ascension of ascending node: 131.6565°
argument of perigee: 89.1559°
revolutions per day: 14.37890565
mean anomaly at epoch: 270.9774°
orbit number at epoch: 78881

The dashed part of the orbit path shows where the satellite is in the earth's shadow,  

DLR